SP3ZBZ-13 Weather Reports


time (UTC)temp
C
wind
direction
speed
KPH
gust
KPH
rain 1hr
cm
rain 24hr
cm
rain mn
cm
humidity
%
barometer
mb
20260502214449 16 240 4.8 8.0 0.00 0.00 0.00 43 1012.7
20260502212948 16 185 3.2 4.8 0.00 0.00 0.00 44 1012.9
20260502211448 16 204 3.2 4.8 0.00 0.00 0.00 44 1012.9
20260502205946 17 228 3.2 6.4 0.00 0.00 0.00 43 1012.9
20260502204446 17 195 3.2 4.8 0.00 0.00 0.00 43 1013.0
20260502202945 16 179 3.2 3.2 0.00 0.00 0.00 44 1013.0
20260502201444 17 162 3.2 3.2 0.00 0.00 0.00 43 1013.0
20260502195943 17 168 3.2 3.2 0.00 0.00 0.00 43 1013.1
20260502194442 17 192 3.2 3.2 0.00 0.00 0.00 46 1013.2
20260502192941 18 174 3.2 3.2 0.00 0.00 0.00 45 1013.2
20260502191440 18 180 1.6 3.2 0.00 0.00 0.00 42 1013.2
20260502185939 19 162 3.2 3.2 0.00 0.00 0.00 41 1013.1
20260502184438 19 168 3.2 3.2 0.00 0.00 0.00 40 1013.2
20260502182937 20 180 3.2 4.8 0.00 0.00 0.00 37 1013.1
20260502181436 21 198 3.2 4.8 0.00 0.00 0.00 35 1013.1
20260502162930 25 114 6.4 14.5 0.00 0.00 0.00 29 1013.6
20260502161429 25 175 6.4 16.1 0.00 0.00 0.00 28 1013.8
20260502151425 25 167 6.4 16.1 0.00 0.00 0.00 28 1014.6
20260502122916 24 250 8.0 16.1 0.00 0.00 0.00 26 1016.6
20260502121414 25 217 6.4 16.1 0.00 0.00 0.00 24 1016.7
20260502115913 24 180 8.0 17.7 0.00 0.00 0.00 25 1016.8
20260502114412 25 210 8.0 16.1 0.00 0.00 0.00 25 1017.1
20260502112911 24 222 4.8 9.7 0.00 0.00 0.00 25 1017.4
20260502111410 24 12 6.4 16.1 0.00 0.00 0.00 25 1017.5
20260502105910 23 228 9.7 17.7 0.00 0.00 0.00 27 1017.7
20260502104409 23 246 6.4 17.7 0.00 0.00 0.00 28 1017.9
20260502102908 23 240 8.0 20.9 0.00 0.00 0.00 26 1018.1
20260502101407 23 211 6.4 14.5 0.00 0.00 0.00 25 1018.1
20260502091403 22 288 6.4 12.9 0.00 0.00 0.00 30 1018.8
20260502071356 18 42 1.6 3.2 0.00 0.00 0.00 37 1019.7
20260502065854 17 278 3.2 4.8 0.00 0.00 0.00 43 1019.7
20260502064353 16 342 4.8 6.4 0.00 0.00 0.00 49 1019.8
20260502062853 15 329 3.2 6.4 0.00 0.00 0.00 55 1019.9
20260502061352 13 340 3.2 4.8 0.00 0.00 0.00 59 1019.9
20260502055851 14 348 0.0 3.2 0.00 0.00 0.00 57 1019.9
20260502054350 12 295 0.0 3.2 0.00 0.00 0.00 60 1019.9
20260502052849 11 336 0.0 3.2 0.00 0.00 0.00 61 1019.9
20260502051348 10 258 0.0 0.0 0.00 0.00 0.00 63 1019.9
20260502045847 8 258 0.0 0.0 0.00 0.00 0.00 70 1020.1
20260502044346 7 268 0.0 1.6 0.00 0.00 0.00 73 1020.2
20260502042845 7 264 0.0 0.0 0.00 0.00 0.00 74 1020.1
20260502041344 6 254 1.6 3.2 0.00 0.00 0.00 76 1020.0
20260502035843 6 252 0.0 3.2 0.00 0.00 0.00 76 1020.0
20260502034342 5 216 0.0 3.2 0.00 0.00 0.00 79 1020.1
20260502032841 5 252 0.0 3.2 0.00 0.00 0.00 79 1020.2
20260502031340 5 240 0.0 3.2 0.00 0.00 0.00 79 1020.2
20260502025840 5 210 1.6 3.2 0.00 0.00 0.00 78 1020.3
20260502024339 6 234 1.6 3.2 0.00 0.00 0.00 76 1020.3
20260502022838 6 228 3.2 4.8 0.00 0.00 0.00 75 1020.3
20260502021337 6 240 3.2 4.8 0.00 0.00 0.00 76 1020.4
20260502015836 6 228 1.6 3.2 0.00 0.00 0.00 76 1020.4
20260502014336 6 228 3.2 4.8 0.00 0.00 0.00 74 1020.4
20260502012834 7 228 3.2 4.8 0.00 0.00 0.00 73 1020.4
20260502011334 7 234 1.6 3.2 0.00 0.00 0.00 73 1020.6
20260502005834 7 240 3.2 4.8 0.00 0.00 0.00 72 1020.7
20260502004332 7 258 3.2 3.2 0.00 0.00 0.00 71 1020.7
20260502002831 7 240 3.2 4.8 0.00 0.00 0.00 73 1020.7
20260502001330 7 246 3.2 4.8 0.00 0.00 0.00 73 1020.9
20260501235829 8 252 1.6 3.2 0.00 0.00 0.00 71 1020.9
20260501234329 8 234 3.2 4.8 0.00 0.00 0.00 73 1021.0
20260501232828 8 240 1.6 3.2 0.00 0.00 0.00 70 1021.0
20260501231327 9 252 0.0 3.2 0.00 0.00 0.00 72 1021.0
20260501225826 9 246 0.0 0.0 0.00 0.00 0.00 69 1021.0
20260501224325 9 240 0.0 3.2 0.00 0.00 0.00 69 1021.0
20260501222825 10 264 1.6 3.2 0.00 0.00 0.00 67 1021.0
20260501221324 10 258 1.6 3.2 0.00 0.00 0.00 68 1021.1
20260501215823 10 258 0.0 3.2 0.00 0.00 0.00 68 1021.1